TimeMST,TemperatureF,Dew PointF,Humidity,Sea Level PressureIn,VisibilityMPH,Wind Direction,Wind SpeedMPH,Gust SpeedMPH,PrecipitationIn,Events,Conditions,WindDirDegrees,DateUTC
12:52 AM,7.0,-0.9,70,30.14,10.0,SSW,10.4,-,N/A,,Clear,200,2012-12-10 07:52:00
1:52 AM,12.0,1.0,61,30.08,10.0,South,15.0,-,N/A,,Clear,190,2012-12-10 08:52:00
2:52 AM,10.0,-0.0,64,30.06,10.0,SSW,8.1,-,N/A,,Clear,200,2012-12-10 09:52:00
3:52 AM,8.1,-0.9,67,30.04,10.0,WNW,4.6,-,N/A,,Clear,290,2012-12-10 10:52:00
4:52 AM,9.0,-0.9,64,30.04,10.0,Calm,Calm,-,N/A,,Clear,0,2012-12-10 11:52:00
5:52 AM,9.0,1.0,70,30.04,10.0,WSW,4.6,-,N/A,,Mostly Cloudy,250,2012-12-10 12:52:00
7:52 AM,16.0,6.1,65,30.04,10.0,SSW,5.8,-,N/A,,Overcast,200,2012-12-10 14:52:00
8:52 AM,19.9,9.0,62,30.04,10.0,WSW,8.1,-,N/A,,Scattered Clouds,240,2012-12-10 15:52:00
9:52 AM,23.0,10.0,58,30.03,10.0,West,11.5,-,N/A,,Mostly Cloudy,270,2012-12-10 16:52:00
10:52 AM,25.0,10.0,53,29.97,10.0,West,17.3,21.9,N/A,,Mostly Cloudy,270,2012-12-10 17:52:00
11:52 AM,27.0,14.0,58,29.94,10.0,West,13.8,-,N/A,,Scattered Clouds,260,2012-12-10 18:52:00
12:52 PM,30.0,18.0,61,29.91,10.0,West,10.4,-,0.02,,Clear,270,2012-12-10 19:52:00
1:52 PM,30.9,21.0,67,29.90,10.0,NW,12.7,-,0.04,,Overcast,310,2012-12-10 20:52:00
2:52 PM,30.9,21.0,67,29.92,10.0,NW,13.8,-,0.01,,Overcast,310,2012-12-10 21:52:00
3:52 PM,30.0,21.0,69,29.95,10.0,WNW,6.9,-,N/A,,Overcast,300,2012-12-10 22:52:00
4:52 PM,30.0,21.9,72,29.96,10.0,West,6.9,-,N/A,,Overcast,280,2012-12-10 23:52:00
5:52 PM,28.0,21.0,75,29.99,10.0,NNW,6.9,-,N/A,,Overcast,330,2012-12-11 00:52:00
6:52 PM,24.1,18.0,77,30.03,10.0,Calm,Calm,-,N/A,,Partly Cloudy,0,2012-12-11 01:52:00
7:52 PM,17.1,14.0,88,30.04,10.0,Calm,Calm,-,N/A,,Clear,0,2012-12-11 02:52:00
8:52 PM,12.0,9.0,88,30.06,10.0,South,3.5,-,N/A,,Partly Cloudy,190,2012-12-11 03:52:00
9:52 PM,12.9,10.0,88,30.05,10.0,WSW,4.6,-,N/A,,Clear,250,2012-12-11 04:52:00
10:52 PM,12.9,9.0,84,30.04,10.0,Calm,Calm,-,N/A,,Clear,0,2012-12-11 05:52:00
11:52 PM,17.1,12.9,84,30.02,10.0,West,4.6,-,N/A,,Mostly Cloudy,270,2012-12-11 06:52:00